Manistique, MI

8:57 AM EST on February 21, 2018 (GMT -0500)
Schoolcraft County

Weather History for KISQ - March, 2014

Change the Weather History Date:

Sunday, March 30, 2014

  Actual Average Record
Temperature  
Mean Temperature 22 °F -  
Max Temperature 34 °F 40 °F 57 °F (1968)
Min Temperature 10 °F 24 °F 4 °F (1969)
Degree Days  
Heating Degree Days 43    
Moisture  
Dew Point 21 °F    
Average Humidity 83    
Maximum Humidity 94    
Minimum Humidity 68    
Precipitation  
Precipitation 0.00 in - - ()
Sea Level Pressure  
Sea Level Pressure 30.14 in    
Wind  
Wind Speed 4 mph (South)    
Max Wind Speed 14 mph    
Max Gust Speed 24 mph    
Visibility 10 miles    
Events      
Averages and records for this station are not official NWS values.
T = Trace of Precipitation, MM = Missing Value Source: NWS Daily Summary

Daily Weather History Graph

Daily Weather History Graph

Search for Another Location

Airport or City:

Trip Planner

Search our weather history database for the weather conditions in past years. The results will help you decide how hot, cold, wet, or windy it might be!

Date:

Astronomy

Mar. 30, 2014 Rise Set
Actual Time 7:28 AM EDT 8:10 PM EDT
Civil Twilight 6:58 AM EDT 8:40 PM EDT
Nautical Twilight 6:22 AM EDT 9:16 PM EDT
Astronomical Twilight 5:45 AM EDT 9:54 PM EDT
Moon 7:14 AM EDT (3/30) 8:24 PM EDT (3/30)
Length of Visible Light 13h 42m
Length of Day
12h 42m
Waning Crescent, 0% of the Moon is Illuminated
Mar 30
Waning Crescent
Mar 30
New
Apr 7
First Quarter
Apr 15
Full
Apr 22
Last Quarter

Hourly Weather History & Observations

Time (EDT) Temp. Windchill Dew Point Humidity Pressure Visibility Wind Dir Wind Speed Gust Speed Precip Events Conditions
12:15 AM 19.8 °F - 16.0 °F 85% 30.25 in 10.0 mi Calm Calm - N/A   Clear
12:34 AM 20.7 °F - 17.8 °F 89% 30.25 in 10.0 mi North - - N/A   Clear
12:55 AM 18.1 °F - 15.8 °F 91% 30.24 in 10.0 mi Calm Calm - N/A   Clear
1:15 AM 16.7 °F - 13.8 °F 88% 30.24 in 10.0 mi Calm Calm - N/A   Clear
1:34 AM 17.2 °F - 14.7 °F 90% 30.23 in 10.0 mi Calm Calm - N/A   Clear
1:55 AM 16.0 °F - 14.0 °F 92% 30.23 in 10.0 mi Calm Calm - N/A   Clear
2:14 AM 16.0 °F - 14.4 °F 93% 30.23 in 10.0 mi Calm Calm - N/A   Clear
2:35 AM 13.1 °F - 11.3 °F 93% 30.23 in 10.0 mi Calm Calm - N/A   Clear
2:55 AM 15.1 °F - 13.5 °F 93% 30.23 in 10.0 mi Calm Calm - N/A   Clear
3:14 AM 14.4 °F - 12.9 °F 94% 30.23 in 10.0 mi Calm Calm - N/A   Clear
3:35 AM 13.8 °F - 12.2 °F 93% 30.23 in 10.0 mi Calm Calm - N/A   Clear
3:54 AM 13.8 °F - 11.5 °F 90% 30.22 in 10.0 mi Calm Calm - N/A   Clear
4:15 AM 13.1 °F - 10.9 °F 91% 30.21 in 10.0 mi Calm Calm - N/A   Clear
4:34 AM 13.1 °F - 10.6 °F 90% 30.21 in 10.0 mi Calm Calm - N/A   Clear
4:55 AM 11.7 °F - 9.0 °F 89% 30.22 in 10.0 mi Calm Calm - N/A   Clear
5:15 AM 13.3 °F - 10.6 °F 89% 30.21 in 10.0 mi Calm Calm - N/A   Clear
5:34 AM 11.5 °F 2.1 °F 8.6 °F 88% 30.20 in 10.0 mi SSW 5.8 mph - N/A   Clear
5:55 AM 11.7 °F - 8.4 °F 87% 30.20 in 10.0 mi Calm Calm - N/A   Clear
6:15 AM 10.4 °F - 7.5 °F 88% 30.21 in 10.0 mi Calm Calm - N/A   Clear
6:34 AM 11.5 °F 2.1 °F 8.4 °F 87% 30.21 in 10.0 mi South 5.8 mph - N/A   Clear
6:55 AM 11.7 °F - 8.6 °F 88% 30.21 in 10.0 mi Calm Calm - N/A   Clear
7:15 AM 13.3 °F 7.3 °F 10.0 °F 87% 30.20 in 10.0 mi SSE 3.5 mph - N/A   Clear
7:35 AM 13.3 °F - 10.0 °F 87% 30.20 in 10.0 mi Calm Calm - N/A   Clear
7:55 AM 16.5 °F - 12.4 °F 84% 30.20 in 10.0 mi Calm Calm - N/A   Clear
8:14 AM 15.1 °F - 10.9 °F 84% 30.20 in 10.0 mi Calm Calm - N/A   Clear
8:35 AM 17.1 °F 10.0 °F 13.6 °F 86% 30.20 in 10.0 mi SE 4.6 mph - N/A   Clear
8:55 AM 21.7 °F 15.5 °F 18.3 °F 87% 30.20 in 10.0 mi SSE 4.6 mph - N/A   Clear
9:14 AM 24.6 °F 18.8 °F 20.7 °F 85% 30.20 in 10.0 mi SSE 4.6 mph - N/A   Clear
9:35 AM 27.7 °F 21.3 °F 22.5 °F 81% 30.20 in 10.0 mi SSE 5.8 mph - N/A   Clear
9:55 AM 29.1 °F 20.6 °F 22.3 °F 76% 30.19 in 10.0 mi SE 9.2 mph - N/A   Clear
10:14 AM 29.8 °F 21.5 °F 23.4 °F 77% 30.19 in 10.0 mi SSE 9.2 mph - N/A   Clear
10:35 AM 31.6 °F 23.1 °F 23.0 °F 70% 30.20 in 10.0 mi South 10.4 mph - N/A   Clear
10:54 AM 31.6 °F 22.6 °F 23.0 °F 70% 30.18 in 10.0 mi South 11.5 mph 16.1 mph N/A   Clear
11:15 AM 32.0 °F 22.5 °F 22.8 °F 69% 30.18 in 10.0 mi South 12.7 mph 23.0 mph N/A   Clear
11:34 AM 32.0 °F 23.0 °F 23.5 °F 71% 30.18 in 10.0 mi SSE 11.5 mph 16.1 mph N/A   Clear
11:55 AM 32.2 °F 22.7 °F 23.5 °F 70% 30.17 in 10.0 mi South 12.7 mph - N/A   Clear
12:15 PM 32.9 °F 24.7 °F 23.5 °F 68% 30.15 in 10.0 mi SSE 10.4 mph 20.7 mph N/A   Clear
12:34 PM 32.9 °F 24.1 °F 24.1 °F 70% 30.16 in 10.0 mi South 11.5 mph 18.4 mph N/A   Clear
12:55 PM 33.4 °F 24.8 °F 24.8 °F 71% 30.14 in 10.0 mi South 11.5 mph 17.3 mph N/A   Clear
1:14 PM 33.6 °F 24.6 °F 24.8 °F 70% 30.13 in 10.0 mi South 12.7 mph 20.7 mph N/A   Clear
1:35 PM 33.8 °F 25.3 °F 25.3 °F 71% 30.12 in 10.0 mi South 11.5 mph 19.6 mph N/A   Clear
1:55 PM 33.8 °F 24.8 °F 25.3 °F 71% 30.12 in 10.0 mi South 12.7 mph - N/A   Clear
2:14 PM 33.8 °F 24.3 °F 25.7 °F 72% 30.11 in 10.0 mi South 13.8 mph 24.2 mph N/A   Clear
2:35 PM 33.8 °F 24.8 °F 26.6 °F 75% 30.10 in 10.0 mi South 12.7 mph 21.9 mph N/A   Clear
2:55 PM 33.8 °F 24.8 °F 27.3 °F 77% 30.09 in 10.0 mi South 12.7 mph - N/A   Clear
3:14 PM 34.0 °F 25.0 °F 28.0 °F 79% 30.08 in 10.0 mi South 12.7 mph 18.4 mph N/A   Clear
3:35 PM 33.8 °F 25.8 °F 28.2 °F 80% 30.07 in 10.0 mi South 10.4 mph 20.7 mph N/A   Clear
3:55 PM 34.0 °F 25.5 °F 28.2 °F 79% 30.07 in 10.0 mi South 11.5 mph 19.6 mph N/A   Clear
4:15 PM 33.8 °F 24.8 °F 28.0 °F 79% 30.06 in 10.0 mi South 12.7 mph - N/A   Clear
4:35 PM 33.8 °F 25.3 °F 28.0 °F 79% 30.06 in 10.0 mi South 11.5 mph - N/A   Clear
4:54 PM 34.0 °F 26.6 °F 28.0 °F 79% 30.06 in 10.0 mi South 9.2 mph - N/A   Clear
5:15 PM 34.0 °F 26.0 °F 28.0 °F 79% 30.06 in 10.0 mi South 10.4 mph - N/A   Clear
5:34 PM 34.0 °F 27.2 °F 28.2 °F 79% 30.05 in 10.0 mi South 8.1 mph - N/A   Clear
5:55 PM 34.0 °F 26.6 °F 28.2 °F 79% 30.05 in 10.0 mi South 9.2 mph - N/A   Clear
6:15 PM 33.8 °F 25.8 °F 28.2 °F 80% 30.05 in 10.0 mi South 10.4 mph - N/A   Clear
6:34 PM 33.6 °F 26.8 °F 28.4 °F 81% 30.05 in 10.0 mi South 8.1 mph - N/A   Clear
6:55 PM 33.4 °F 28.1 °F 28.4 °F 82% 30.05 in 10.0 mi South 5.8 mph - N/A   Clear
7:14 PM 33.1 °F 27.7 °F 28.4 °F 83% 30.05 in 10.0 mi South 5.8 mph - N/A   Clear
7:35 PM 32.4 °F 27.9 °F 28.2 °F 85% 30.05 in 10.0 mi South 4.6 mph - N/A   Clear
7:55 PM 32.0 °F 25.6 °F 28.2 °F 86% 30.05 in 10.0 mi South 6.9 mph - N/A   Clear
8:15 PM 31.6 °F 25.1 °F 27.5 °F 85% 30.05 in 10.0 mi South 6.9 mph - N/A   Clear
8:35 PM 31.1 °F 23.7 °F 27.7 °F 87% 30.04 in 10.0 mi South 8.1 mph - N/A   Clear
8:55 PM 31.3 °F 25.6 °F 27.5 °F 86% 30.05 in 10.0 mi South 5.8 mph - N/A   Clear
9:15 PM 31.8 °F 26.2 °F 27.9 °F 85% 30.05 in 10.0 mi South 5.8 mph - N/A   Clear
9:35 PM 32.0 °F 25.6 °F 27.5 °F 83% 30.05 in 10.0 mi South 6.9 mph - N/A   Clear
9:55 PM 32.0 °F 26.4 °F 27.5 °F 83% 30.05 in 10.0 mi South 5.8 mph - N/A   Clear
10:14 PM 31.3 °F 23.9 °F 27.5 °F 86% 30.06 in 10.0 mi South 8.1 mph - N/A   Clear
10:35 PM 29.8 °F 23.0 °F 27.1 °F 90% 30.06 in 10.0 mi South 6.9 mph - N/A   Clear
10:55 PM 29.3 °F 22.3 °F 27.1 °F 92% 30.06 in 10.0 mi South 6.9 mph - N/A   Clear
11:14 PM 28.9 °F 21.9 °F 26.6 °F 91% 30.06 in 10.0 mi SSE 6.9 mph - N/A   Clear
11:35 PM 29.1 °F 20.6 °F 26.6 °F 90% 30.06 in 10.0 mi SSE 9.2 mph - N/A   Clear
11:55 PM 29.3 °F 23.2 °F 26.4 °F 89% 30.05 in 10.0 mi ESE 5.8 mph - N/A   Clear